| time (UTC) | temp C | wind direction | speed KPH | gust KPH | rain 1hr cm | rain 24hr cm | rain mn cm | humidity % | barometer mb |
| 20260502224526 | 11 | 103 | 0.0 | 0.0 | 0.00 | 0.00 | 0.00 | 75 | 1006.3 |
| 20260502223023 | 11 | 185 | 0.0 | 0.0 | 0.00 | 0.00 | 0.00 | 75 | 1006.3 |
| 20260502221511 | 11 | 108 | 0.0 | 0.0 | 0.00 | 0.00 | 0.00 | 76 | 1006.2 |
| 20260502214515 | 10 | 120 | 0.0 | 0.0 | 0.00 | 0.00 | 0.00 | 77 | 1005.7 |
| 20260502213037 | 10 | 283 | 0.0 | 0.0 | 0.00 | 0.00 | 0.00 | 78 | 1005.7 |
| 20260502211510 | 10 | 285 | 0.0 | 0.0 | 0.00 | 0.00 | 0.00 | 78 | 1005.6 |
| 20260502210026 | 9 | 268 | 0.0 | 0.0 | 0.00 | 0.00 | 0.00 | 78 | 1005.5 |
| 20260502204612 | 9 | 68 | 0.0 | 0.0 | 0.00 | 0.00 | 0.00 | 78 | 1005.7 |
| 20260502203027 | 9 | 68 | 0.0 | 0.0 | 0.00 | 0.00 | 0.00 | 78 | 1005.4 |
| 20260502201522 | 9 | 68 | 0.0 | 0.0 | 0.00 | 0.00 | 0.00 | 78 | 1005.4 |
| 20260502200016 | 9 | 290 | 0.0 | 0.0 | 0.00 | 0.00 | 0.00 | 78 | 1005.1 |
| 20260502194509 | 9 | 290 | 0.0 | 0.0 | 0.00 | 0.00 | 0.00 | 78 | 1005.4 |
| 20260502193012 | 9 | 290 | 0.0 | 0.0 | 0.00 | 0.00 | 0.00 | 78 | 1005.4 |
| 20260502191507 | 9 | 290 | 0.0 | 0.0 | 0.00 | 0.00 | 0.00 | 78 | 1005.2 |
| 20260502190007 | 9 | 290 | 0.0 | 0.0 | 0.00 | 0.00 | 0.00 | 78 | 1005.1 |
| 20260502184605 | 9 | 288 | 0.0 | 0.0 | 0.00 | 0.00 | 0.00 | 78 | 1005.3 |
| 20260502183028 | 9 | 292 | 0.0 | 0.0 | 0.00 | 0.00 | 0.00 | 77 | 1004.9 |
| 20260502181617 | 9 | 292 | 0.0 | 0.0 | 0.00 | 0.00 | 0.00 | 77 | 1004.8 |
| 20260502163017 | 9 | 269 | 0.0 | 0.0 | 0.00 | 0.00 | 0.00 | 72 | 1004.6 |
| 20260502161511 | 9 | 269 | 0.0 | 0.0 | 0.00 | 0.00 | 0.00 | 71 | 1004.6 |
| 20260502151516 | 10 | 269 | 0.0 | 0.0 | 0.00 | 0.00 | 0.00 | 68 | 1004.8 |
| 20260502140106 | 11 | 269 | 0.0 | 0.0 | 0.00 | 0.00 | 0.15 | 63 | 1004.8 |
| 20260502123013 | 13 | 269 | 0.0 | 0.0 | 0.00 | 0.00 | 0.15 | 56 | 1004.1 |
| 20260502121510 | 13 | 269 | 0.0 | 0.0 | 0.00 | 0.00 | 0.15 | 55 | 1004.1 |
| 20260502120107 | 14 | 255 | 0.0 | 0.0 | 0.00 | 0.00 | 0.15 | 54 | 1003.8 |
| 20260502114513 | 14 | 286 | 0.0 | 0.0 | 0.00 | 0.00 | 0.15 | 53 | 1003.8 |
| 20260502113100 | 15 | 126 | 0.0 | 0.0 | 0.00 | 0.00 | 0.15 | 50 | 1003.4 |
| 20260502111556 | 15 | 117 | 0.0 | 0.0 | 0.00 | 0.00 | 0.15 | 48 | 1003.3 |
| 20260502110059 | 15 | 124 | 0.0 | 0.0 | 0.00 | 0.00 | 0.15 | 46 | 1003.3 |
| 20260502104526 | 16 | 103 | 1.6 | 0.0 | 0.00 | 0.00 | 0.15 | 43 | 1002.9 |
| 20260502103026 | 16 | 109 | 1.6 | 0.0 | 0.00 | 0.00 | 0.15 | 39 | 1002.7 |
| 20260502101557 | 16 | 275 | 0.0 | 0.0 | 0.00 | 0.00 | 0.15 | 40 | 1002.3 |
| 20260502091508 | 17 | 321 | 4.8 | 0.0 | 0.00 | 0.00 | 0.15 | 33 | 1001.2 |
| 20260502070001 | 20 | 240 | 8.0 | 0.0 | 0.00 | 0.00 | 0.15 | 26 | 998.9 |
| 20260502064609 | 21 | 304 | 9.7 | 0.0 | 0.00 | 0.00 | 0.15 | 24 | 998.2 |
| 20260502063036 | 21 | 294 | 9.7 | 0.0 | 0.00 | 0.00 | 0.15 | 23 | 997.8 |
| 20260502061604 | 21 | 265 | 11.3 | 0.0 | 0.00 | 0.00 | 0.15 | 25 | 997.5 |
| 20260502054613 | 22 | 274 | 4.8 | 0.0 | 0.00 | 0.00 | 0.15 | 24 | 997.3 |
| 20260502053026 | 22 | 259 | 8.0 | 0.0 | 0.00 | 0.00 | 0.15 | 27 | 997.0 |
| 20260502051511 | 22 | 308 | 6.4 | 0.0 | 0.00 | 0.00 | 0.15 | 26 | 996.6 |
| 20260502050101 | 22 | 160 | 3.2 | 0.0 | 0.00 | 0.00 | 0.15 | 28 | 997.0 |
| 20260502044606 | 22 | 201 | 4.8 | 0.0 | 0.00 | 0.00 | 0.15 | 26 | 996.8 |
| 20260502043024 | 22 | 118 | 3.2 | 0.0 | 0.00 | 0.00 | 0.15 | 27 | 996.4 |
| 20260502041553 | 22 | 74 | 4.8 | 0.0 | 0.00 | 0.00 | 0.15 | 29 | 995.9 |
| 20260502040035 | 21 | 310 | 9.7 | 0.0 | 0.00 | 0.00 | 0.15 | 29 | 995.3 |
| 20260502034618 | 21 | 41 | 9.7 | 0.0 | 0.00 | 0.00 | 0.15 | 29 | 994.6 |
| 20260502033022 | 21 | 8 | 9.7 | 0.0 | 0.00 | 0.00 | 0.15 | 31 | 993.9 |
| 20260502031512 | 20 | 323 | 12.9 | 0.0 | 0.00 | 0.00 | 0.15 | 30 | 993.8 |
| 20260502030013 | 21 | 248 | 9.7 | 0.0 | 0.00 | 0.00 | 0.15 | 30 | 993.4 |
| 20260502024504 | 22 | 249 | 4.8 | 0.0 | 0.00 | 0.00 | 0.15 | 29 | 993.4 |
| 20260502023015 | 22 | 282 | 6.4 | 0.0 | 0.00 | 0.00 | 0.15 | 31 | 993.6 |
| 20260502021529 | 23 | 267 | 4.8 | 0.0 | 0.00 | 0.00 | 0.15 | 27 | 993.3 |
| 20260502020016 | 23 | 259 | 1.6 | 0.0 | 0.00 | 0.00 | 0.15 | 31 | 993.2 |
| 20260502014600 | 22 | 136 | 1.6 | 0.0 | 0.00 | 0.00 | 0.15 | 34 | 993.2 |
| 20260502013028 | 22 | 246 | 3.2 | 0.0 | 0.00 | 0.00 | 0.15 | 35 | 992.7 |
| 20260502011619 | 21 | 262 | 1.6 | 0.0 | 0.00 | 0.00 | 0.15 | 37 | 992.8 |
| 20260502010008 | 20 | 234 | 3.2 | 0.0 | 0.00 | 0.00 | 0.15 | 40 | 992.8 |
| 20260502003029 | 19 | 162 | 1.6 | 0.0 | 0.00 | 0.00 | 0.15 | 41 | 992.3 |
| 20260502001502 | 18 | 266 | 0.0 | 0.0 | 0.00 | 0.00 | 0.15 | 44 | 991.8 |
| 20260501234515 | 17 | 276 | 3.2 | 0.0 | 0.00 | 0.00 | 0.15 | 45 | 990.7 |
| 20260501233104 | 16 | 113 | 9.7 | 0.0 | 0.00 | 0.00 | 0.15 | 46 | 990.3 |
| 20260501231504 | 16 | 285 | 4.8 | 0.0 | 0.00 | 0.00 | 0.15 | 43 | 990.2 |
| 20260501230007 | 15 | 210 | 8.0 | 0.0 | 0.00 | 0.00 | 0.15 | 41 | 990.3 |